SCP
0 0 0 0 0 0 0 0 0 0 0 0 0 0 0 0 0 0 0 0 0 0
0 0 0 0 0 0 0 0 0 0 0 0 0 0 0 0 0 0 0 0 0 0
0 0 0 0 0 0 0 0 0 0 0 0 0 0 0 0 0 0 0 0 0 0
0 0 0 0 0 0 0 0 0 0 0 0 0 0 0 0 0 0 0 0 0 0
0 0 0 0 0 0 0 0 0 0 0 0 0 0 0 0 0 0 0 0 0 0
0 0 0 0 0 0 0 0 0 0 0 0 0 0 0 0 0 0 0 0 0 0
0 0 0 0 0 0 0 0 0 0 0 0 0 0 0 0 0 0 0 0 0 0
0 0 0 0 0 0 0 0 0 0 0 0 0 0 0 0 0 0 0 0 0 0
0 0 0 0 0 0 0 0 0 0 0 0 0 0 0 0 0 0 0 0 0 0
0 0 0 0 0 0 0 0 0 0 0 0 0 0 0 0 0 0 0 0 0 0
0 0 0 0 0 0 0 0 0 0 0 0 0 0 0 0 0 0 0 0 0 0
0 0 0 0 0 0 0 0 0 0 0 0 0 0 0 0 0 0 0 0 0 0
0 0 0 0 0 0 0 0 0 0 0 0 0 0 0 0 0 0 0 0 0 0
0 0 0 0 0 0 0 0 0 0 0 0 0 0 0 0 0 0 0 0 0 0
Wind_Speed_500mb
21 22 24 28 30 33 36 38 39 39 39 39 40 41 42 42 43 45 46 47 48 48
23 25 26 28 30 31 33 34 36 37 37 37 38 40 41 43 43 44 44 45 47 48
25 28 30 31 33 33 33 33 34 36 36 36 35 36 38 39 40 41 43 46 47 49
28 29 30 30 31 31 30 29 31 31 31 33 34 35 35 37 38 40 41 42 45 47
25 27 28 28 28 29 29 26 26 28 31 33 35 35 36 37 40 43 46 49 51 53
26 27 28 29 29 25 22 21 22 26 30 33 36 38 40 44 47 49 51 54 55 56
26 28 29 28 24 21 19 20 23 27 31 35 40 45 50 53 55 53 53 53 53 55
30 31 29 25 21 18 18 21 25 29 34 39 44 47 51 54 55 57 59 59 57 57
33 34 30 24 21 20 21 24 27 31 37 41 46 49 53 55 58 58 59 60 58 57
36 35 31 27 24 23 24 26 29 34 39 45 51 55 59 59 58 60 59 57 57 59
36 35 32 31 30 29 29 30 34 41 47 52 56 60 61 60 57 59 58 55 53 53
38 35 33 33 32 33 34 36 40 46 52 57 59 62 62 58 57 58 56 52 52 46
38 35 34 35 37 39 39 43 46 50 56 60 62 61 60 56 55 58 56 51 46 52
40 38 39 41 41 42 44 47 49 53 56 59 61 61 55 53 48 50 50 53 53 53
Wind_Direction_500mb
354 348 347 346 345 344 345 345 345 343 342 342 343 343 342 344 345 345 344 344 343 343
349 346 347 345 344 342 340 337 336 336 338 341 343 343 343 345 347 348 347 346 345 345
345 344 342 340 335 333 333 333 333 333 336 339 344 346 346 347 350 349 350 350 347 346
336 332 328 326 325 324 327 328 327 331 337 342 345 347 347 347 349 349 349 345 344 342
327 322 320 320 321 321 322 328 335 339 343 343 344 345 344 344 346 346 345 344 342 341
320 319 319 318 317 322 326 334 339 341 341 343 342 340 339 340 343 343 341 341 340 337
317 314 315 315 315 318 324 334 339 343 343 343 342 340 339 337 335 335 333 332 332 331
312 313 313 311 308 310 320 330 337 340 340 340 337 335 333 330 330 330 329 330 331 331
312 313 309 299 294 302 316 321 326 332 333 332 333 332 331 329 327 326 327 327 328 329
309 304 298 290 286 291 296 306 316 321 326 329 332 332 330 327 323 322 324 324 325 327
306 301 290 281 275 278 287 300 316 324 326 328 329 328 325 322 318 319 322 322 322 324
299 291 279 271 273 282 293 304 311 317 321 324 325 324 323 321 318 318 319 319 318 317
296 289 284 282 282 289 296 302 309 315 320 321 321 321 321 319 318 318 319 320 317 315
296 293 289 284 283 288 293 299 307 312 313 315 319 319 318 318 320 320 323 317 317 317
Wind_Speed_850mb
21 22 24 28 30 33 36 38 39 39 39 39 40 41 42 42 43 45 46 47 48 48
23 25 26 28 30 31 33 34 36 37 37 37 38 40 41 43 43 44 44 45 47 48
25 28 30 31 33 33 33 33 34 36 36 36 35 36 38 39 40 41 43 46 47 49
28 29 30 30 31 31 30 29 31 31 31 33 34 35 35 37 38 40 41 42 45 47
25 27 28 28 28 29 29 26 26 28 31 33 35 35 36 37 40 43 46 49 51 53
26 27 28 29 29 25 22 21 22 26 30 33 36 38 40 44 47 49 51 54 55 56
26 28 29 28 24 21 19 20 23 27 31 35 40 45 50 53 55 53 53 53 53 55
30 31 29 25 21 18 18 21 25 29 34 39 44 47 51 54 55 57 59 59 57 57
33 34 30 24 21 20 21 24 27 31 37 41 46 49 53 55 58 58 59 60 58 57
36 35 31 27 24 23 24 26 29 34 39 45 51 55 59 59 58 60 59 57 57 59
36 35 32 31 30 29 29 30 34 41 47 52 56 60 61 60 57 59 58 55 53 53
38 35 33 33 32 33 34 36 40 46 52 57 59 62 62 58 57 58 56 52 52 46
38 35 34 35 37 39 39 43 46 50 56 60 62 61 60 56 55 58 56 51 46 52
40 38 39 41 41 42 44 47 49 53 56 59 61 61 55 53 48 50 50 53 53 53
Wind_Direction_850mb
354 348 347 346 345 344 345 345 345 343 342 342 343 343 342 344 345 345 344 344 343 343
349 346 347 345 344 342 340 337 336 336 338 341 343 343 343 345 347 348 347 346 345 345
345 344 342 340 335 333 333 333 333 333 336 339 344 346 346 347 350 349 350 350 347 346
336 332 328 326 325 324 327 328 327 331 337 342 345 347 347 347 349 349 349 345 344 342
327 322 320 320 321 321 322 328 335 339 343 343 344 345 344 344 346 346 345 344 342 341
320 319 319 318 317 322 326 334 339 341 341 343 342 340 339 340 343 343 341 341 340 337
317 314 315 315 315 318 324 334 339 343 343 343 342 340 339 337 335 335 333 332 332 331
312 313 313 311 308 310 320 330 337 340 340 340 337 335 333 330 330 330 329 330 331 331
312 313 309 299 294 302 316 321 326 332 333 332 333 332 331 329 327 326 327 327 328 329
309 304 298 290 286 291 296 306 316 321 326 329 332 332 330 327 323 322 324 324 325 327
306 301 290 281 275 278 287 300 316 324 326 328 329 328 325 322 318 319 322 322 322 324
299 291 279 271 273 282 293 304 311 317 321 324 325 324 323 321 318 318 319 319 318 317
296 289 284 282 282 289 296 302 309 315 320 321 321 321 321 319 318 318 319 320 317 315
296 293 289 284 283 288 293 299 307 312 313 315 319 319 318 318 320 320 323 317 317 317